sat.trackr.live / text

‹ back to catalog

HULIANWANG DIGUI-90

NORAD 65998 · 2025-231D

PAYLOAD ACTIVE UNKNOWN

§ Identity

Operator
Country
PRC
Launch date
2025-10-16
Launch site
WSC
Launch vehicle
Mass (kg)
RCS (m²)

External: N2YO · Heavens-Above · Gunter

§ Orbital elements

Epoch: 2026-05-24T23:50:12.110208Z

Period
108.33 min
Inclination
49.9997°
Eccentricity
0.0000940
Mean motion
13.29325685 rev/d
Perigee alt
1,148.6 km
Apogee alt
1,150.0 km
Semi-major
7,527.4 km
B*
4.6385e-5
RAAN
258.8779°
Arg perigee
149.8543°
Mean anomaly
210.2384°
Rev number
2,980

§ Raw data

HULIANWANG DIGUI-901 65998U 25231D   26144.99319572 -.00000103  00000+0  46385-4 0  99962 65998  49.9997 258.8779 0000940 149.8543 210.2384 13.29325685 29802

JSON: /api/v1/satellites/65998 · /tle

For live sub-satellite position, see the globe view (requires WebGL).

§ Visibility from observer

Set your observer location to see the next 7 days of passes ≥ 10°. The values pass through the URL so the page stays shareable.

No JS? Fill the form by hand. The geolocation button needs JavaScript.